Time,TemperatureF,DewpointF,PressureIn,WindDirection,WindDirectionDegrees,WindSpeedMPH,WindSpeedGustMPH,Humidity,HourlyPrecipIn,Conditions,Clouds,dailyrainin,SoftwareType,DateUTC
2013-06-17 00:02:00,68.4,67.5,30.07,WSW,248,0.0,0.0,97,0.00,RA,,0.00,WeatherDisplay:10.37,2013-06-17 04:02:00,
2013-06-17 00:07:00,68.4,67.5,30.07,WSW,248,0.0,0.0,97,0.00,RA,,0.00,WeatherDisplay:10.37,2013-06-17 04:07:00,
2013-06-17 00:09:00,68.4,67.5,30.08,WSW,248,0.0,0.0,97,0.00,RA,,0.00,WeatherDisplay:10.37,2013-06-17 04:09:00,
2013-06-17 00:12:00,68.4,67.5,30.08,WSW,248,0.0,0.0,97,0.00,RA,,0.00,WeatherDisplay:10.37,2013-06-17 04:12:00,
2013-06-17 00:14:00,68.4,67.5,30.08,WSW,248,0.0,0.0,97,0.00,RA,,0.00,WeatherDisplay:10.37,2013-06-17 04:14:00,
2013-06-17 00:17:00,68.4,67.5,30.08,WSW,248,0.0,1.0,97,0.00,RA,,0.00,WeatherDisplay:10.37,2013-06-17 04:17:00,
2013-06-17 00:19:00,68.3,67.4,30.08,WSW,248,0.0,2.0,97,0.00,RA,,0.00,WeatherDisplay:10.37,2013-06-17 04:19:00,
2013-06-17 00:22:00,68.2,67.0,30.08,WSW,250,1.0,3.0,96,0.00,RA,,0.00,WeatherDisplay:10.37,2013-06-17 04:22:00,
2013-06-17 00:24:00,68.1,66.9,30.08,WSW,248,1.0,3.0,96,0.00,RA,,0.00,WeatherDisplay:10.37,2013-06-17 04:24:00,
2013-06-17 00:27:00,68.2,67.0,30.07,WSW,241,0.0,2.0,96,0.00,RA,,0.00,WeatherDisplay:10.37,2013-06-17 04:27:00,
2013-06-17 00:29:00,68.2,67.3,30.07,WSW,237,0.0,1.0,97,0.00,RA,,0.00,WeatherDisplay:10.37,2013-06-17 04:29:00,
2013-06-17 00:32:00,68.3,67.4,30.08,SW,234,1.0,2.0,97,0.01,RA,,0.01,WeatherDisplay:10.37,2013-06-17 04:32:00,
2013-06-17 00:34:00,68.3,67.4,30.07,SW,236,0.0,1.0,97,0.01,RA,,0.01,WeatherDisplay:10.37,2013-06-17 04:34:00,
2013-06-17 00:37:00,68.2,67.3,30.07,WSW,242,2.0,6.0,97,0.01,RA,,0.01,WeatherDisplay:10.37,2013-06-17 04:37:00,
2013-06-17 00:39:00,68.2,67.0,30.07,WSW,253,1.0,6.0,96,0.01,RA,,0.01,WeatherDisplay:10.37,2013-06-17 04:39:00,
2013-06-17 00:42:00,68.2,67.0,30.07,WSW,258,0.0,1.0,96,0.00,RA,,0.01,WeatherDisplay:10.37,2013-06-17 04:42:00,
2013-06-17 00:44:00,68.3,67.1,30.07,West,262,0.0,1.0,96,0.00,RA,,0.01,WeatherDisplay:10.37,2013-06-17 04:44:00,
2013-06-17 00:47:00,68.3,67.1,30.08,West,270,0.0,2.0,96,0.00,RA,,0.01,WeatherDisplay:10.37,2013-06-17 04:47:00,
2013-06-17 00:49:00,68.3,67.1,30.07,West,278,1.0,1.0,96,0.00,RA,,0.01,WeatherDisplay:10.37,2013-06-17 04:49:00,
2013-06-17 00:52:00,68.2,67.0,30.07,ENE,67,0.0,1.0,96,0.00,RA,,0.01,WeatherDisplay:10.37,2013-06-17 04:52:00,
2013-06-17 00:54:00,68.1,66.6,30.07,ENE,73,0.0,1.0,95,0.00,RA,,0.01,WeatherDisplay:10.37,2013-06-17 04:54:00,
2013-06-17 00:57:00,68.1,66.6,30.07,ENE,70,0.0,2.0,95,0.00,RA,,0.01,WeatherDisplay:10.37,2013-06-17 04:57:00,
2013-06-17 00:59:00,68.1,66.6,30.08,ENE,68,0.0,1.0,95,0.01,RA,,0.02,WeatherDisplay:10.37,2013-06-17 04:59:00,
2013-06-17 01:02:00,68.1,66.6,30.07,ENE,68,0.0,1.0,95,0.01,RA,,0.02,WeatherDisplay:10.37,2013-06-17 05:02:00,
2013-06-17 01:04:00,68.1,66.6,30.07,ENE,68,0.0,0.0,95,0.01,RA,,0.02,WeatherDisplay:10.37,2013-06-17 05:04:00,
2013-06-17 01:07:00,68.0,66.5,30.07,ENE,68,0.0,0.0,95,0.01,RA,,0.02,WeatherDisplay:10.37,2013-06-17 05:07:00,
2013-06-17 01:09:00,67.9,66.4,30.07,ENE,68,0.0,1.0,95,0.00,RA,,0.02,WeatherDisplay:10.37,2013-06-17 05:09:00,
2013-06-17 01:12:00,67.9,66.4,30.06,ENE,68,0.0,1.0,95,0.00,RA,,0.02,WeatherDisplay:10.37,2013-06-17 05:12:00,
2013-06-17 01:14:00,67.8,66.3,30.06,ENE,68,0.0,0.0,95,0.00,RA,,0.02,WeatherDisplay:10.37,2013-06-17 05:14:00,
2013-06-17 01:17:00,67.7,66.5,30.06,ENE,68,0.0,0.0,96,0.00,RA,,0.02,WeatherDisplay:10.37,2013-06-17 05:17:00,
2013-06-17 01:19:00,67.6,66.4,30.06,ENE,68,0.0,0.0,96,0.01,RA,,0.03,WeatherDisplay:10.37,2013-06-17 05:19:00,
2013-06-17 01:22:00,67.6,66.4,30.06,ENE,68,0.0,0.0,96,0.01,RA,,0.03,WeatherDisplay:10.37,2013-06-17 05:22:00,
2013-06-17 01:24:00,67.6,66.4,30.06,ENE,68,0.0,0.0,96,0.01,RA,,0.03,WeatherDisplay:10.37,2013-06-17 05:24:00,
2013-06-17 01:27:00,67.6,66.4,30.06,ENE,68,0.0,1.0,96,0.01,RA,,0.03,WeatherDisplay:10.37,2013-06-17 05:27:00,
2013-06-17 01:29:00,67.6,66.4,30.06,ENE,68,0.0,0.0,96,0.00,RA,,0.03,WeatherDisplay:10.37,2013-06-17 05:29:00,
2013-06-17 01:32:00,67.5,66.3,30.06,ENE,68,0.0,0.0,96,0.00,RA,,0.03,WeatherDisplay:10.37,2013-06-17 05:32:00,
2013-06-17 01:34:00,67.5,66.6,30.06,ENE,68,0.0,0.0,97,0.00,RA,,0.03,WeatherDisplay:10.37,2013-06-17 05:34:00,
2013-06-17 01:37:00,67.6,66.7,30.06,ENE,68,0.0,0.0,97,0.00,RA,,0.03,WeatherDisplay:10.37,2013-06-17 05:37:00,
2013-06-17 01:39:00,67.6,66.7,30.06,ENE,68,0.0,0.0,97,0.00,RA,,0.03,WeatherDisplay:10.37,2013-06-17 05:39:00,
2013-06-17 01:42:00,67.6,66.7,30.05,ENE,68,0.0,0.0,97,0.00,RA,,0.03,WeatherDisplay:10.37,2013-06-17 05:42:00,
2013-06-17 01:44:00,67.6,66.7,30.05,ENE,68,0.0,0.0,97,0.00,RA,,0.03,WeatherDisplay:10.37,2013-06-17 05:44:00,
2013-06-17 01:47:00,67.6,66.7,30.05,ENE,68,0.0,0.0,97,0.00,RA,,0.03,WeatherDisplay:10.37,2013-06-17 05:47:00,
2013-06-17 01:49:00,67.7,66.8,30.05,ENE,68,0.0,0.0,97,0.00,CLR,,0.03,WeatherDisplay:10.37,2013-06-17 05:49:00,
2013-06-17 01:52:00,67.7,66.8,30.05,ENE,68,0.0,0.0,97,0.00,CLR,,0.03,WeatherDisplay:10.37,2013-06-17 05:52:00,
2013-06-17 01:54:00,67.6,66.7,30.05,ENE,68,0.0,0.0,97,0.00,CLR,,0.03,WeatherDisplay:10.37,2013-06-17 05:54:00,
2013-06-17 01:57:00,67.6,66.7,30.05,ENE,68,0.0,0.0,97,0.00,CLR,,0.03,WeatherDisplay:10.37,2013-06-17 05:57:00,
2013-06-17 01:59:00,67.6,66.7,30.05,ENE,68,0.0,2.0,97,0.00,CLR,,0.03,WeatherDisplay:10.37,2013-06-17 05:59:00,
2013-06-17 02:02:00,67.6,66.7,30.05,NE,46,0.0,1.0,97,0.00,CLR,,0.03,WeatherDisplay:10.37,2013-06-17 06:02:00,
2013-06-17 02:04:00,67.6,66.7,30.05,North,2,0.0,0.0,97,0.00,CLR,,0.03,WeatherDisplay:10.37,2013-06-17 06:04:00,
2013-06-17 02:07:00,67.5,66.6,30.05,NW,304,0.0,0.0,97,0.00,CLR,,0.03,WeatherDisplay:10.37,2013-06-17 06:07:00,
2013-06-17 02:09:00,67.5,66.6,30.05,WNW,292,0.0,0.0,97,0.00,CLR,,0.03,WeatherDisplay:10.37,2013-06-17 06:09:00,
2013-06-17 02:12:00,67.5,66.6,30.05,WNW,292,0.0,0.0,97,0.00,CLR,,0.03,WeatherDisplay:10.37,2013-06-17 06:12:00,
2013-06-17 02:14:00,67.5,66.6,30.05,WNW,292,0.0,0.0,97,0.00,CLR,,0.03,WeatherDisplay:10.37,2013-06-17 06:14:00,
2013-06-17 02:17:00,67.5,66.9,30.05,WNW,292,0.0,0.0,98,0.00,CLR,,0.03,WeatherDisplay:10.37,2013-06-17 06:17:00,
2013-06-17 02:19:00,67.5,66.6,30.05,WNW,292,0.0,0.0,97,0.00,CLR,,0.03,WeatherDisplay:10.37,2013-06-17 06:19:00,
2013-06-17 02:22:00,67.5,66.6,30.05,WNW,292,0.0,0.0,97,0.00,CLR,,0.03,WeatherDisplay:10.37,2013-06-17 06:22:00,
2013-06-17 02:24:00,67.5,66.9,30.05,WNW,292,0.0,0.0,98,0.00,CLR,,0.03,WeatherDisplay:10.37,2013-06-17 06:24:00,
2013-06-17 02:27:00,67.5,66.9,30.05,WNW,292,0.0,1.0,98,0.00,CLR,,0.03,WeatherDisplay:10.37,2013-06-17 06:27:00,
2013-06-17 02:29:00,67.6,67.0,30.05,WNW,292,0.0,0.0,98,0.00,CLR,,0.03,WeatherDisplay:10.37,2013-06-17 06:29:00,
2013-06-17 02:32:00,67.5,66.9,30.05,WNW,292,0.0,0.0,98,0.00,CLR,,0.03,WeatherDisplay:10.37,2013-06-17 06:32:00,
2013-06-17 02:34:00,67.6,67.0,30.05,WNW,292,0.0,1.0,98,0.00,CLR,,0.03,WeatherDisplay:10.37,2013-06-17 06:34:00,
2013-06-17 02:37:00,67.6,67.0,30.05,WNW,292,0.0,0.0,98,0.00,CLR,,0.03,WeatherDisplay:10.37,2013-06-17 06:37:00,
2013-06-17 02:39:00,67.5,66.9,30.05,WNW,292,0.0,0.0,98,0.00,CLR,,0.03,WeatherDisplay:10.37,2013-06-17 06:39:00,
2013-06-17 02:42:00,67.5,66.9,30.05,WNW,292,0.0,0.0,98,0.00,CLR,,0.03,WeatherDisplay:10.37,2013-06-17 06:42:00,
2013-06-17 02:44:00,67.5,66.9,30.05,WNW,292,0.0,0.0,98,0.00,CLR,,0.03,WeatherDisplay:10.37,2013-06-17 06:44:00,
2013-06-17 02:47:00,67.5,66.9,30.05,WNW,292,0.0,0.0,98,0.00,CLR,,0.03,WeatherDisplay:10.37,2013-06-17 06:47:00,
2013-06-17 02:49:00,67.5,66.9,30.05,WNW,292,0.0,0.0,98,0.00,CLR,,0.03,WeatherDisplay:10.37,2013-06-17 06:49:00,
2013-06-17 02:52:00,67.5,66.9,30.05,WNW,292,0.0,0.0,98,0.00,CLR,,0.03,WeatherDisplay:10.37,2013-06-17 06:52:00,
2013-06-17 02:54:00,67.5,66.9,30.05,WNW,292,0.0,0.0,98,0.00,CLR,,0.03,WeatherDisplay:10.37,2013-06-17 06:54:00,
2013-06-17 02:57:00,67.5,66.9,30.05,WNW,292,0.0,0.0,98,0.00,CLR,,0.03,WeatherDisplay:10.37,2013-06-17 06:57:00,
2013-06-17 02:59:00,67.5,66.9,30.05,WNW,292,0.0,0.0,98,0.00,CLR,,0.03,WeatherDisplay:10.37,2013-06-17 06:59:00,
2013-06-17 03:02:00,67.4,66.8,30.05,WNW,292,0.0,1.0,98,0.00,CLR,,0.03,WeatherDisplay:10.37,2013-06-17 07:02:00,
2013-06-17 03:04:00,67.3,66.7,30.05,WNW,292,0.0,1.0,98,0.00,CLR,,0.03,WeatherDisplay:10.37,2013-06-17 07:04:00,
2013-06-17 03:07:00,67.2,66.6,30.05,WNW,292,0.0,1.0,98,0.00,CLR,,0.03,WeatherDisplay:10.37,2013-06-17 07:07:00,
2013-06-17 03:09:00,67.2,66.6,30.05,WNW,292,0.0,0.0,98,0.00,CLR,,0.03,WeatherDisplay:10.37,2013-06-17 07:09:00,
2013-06-17 03:12:00,67.2,66.6,30.05,WNW,292,0.0,1.0,98,0.00,CLR,,0.03,WeatherDisplay:10.37,2013-06-17 07:12:00,
2013-06-17 03:14:00,67.2,66.6,30.05,West,281,1.0,2.0,98,0.00,CLR,,0.03,WeatherDisplay:10.37,2013-06-17 07:14:00,
2013-06-17 03:17:00,67.1,66.5,30.05,WSW,258,0.0,2.0,98,0.00,CLR,,0.03,WeatherDisplay:10.37,2013-06-17 07:17:00,
2013-06-17 03:19:00,67.1,66.5,30.05,WSW,242,0.0,1.0,98,0.00,CLR,,0.03,WeatherDisplay:10.37,2013-06-17 07:19:00,
2013-06-17 03:22:00,67.1,66.5,30.05,SW,223,0.0,1.0,98,0.00,CLR,,0.03,WeatherDisplay:10.37,2013-06-17 07:22:00,
2013-06-17 03:24:00,67.1,66.5,30.05,SW,225,0.0,0.0,98,0.00,CLR,,0.03,WeatherDisplay:10.37,2013-06-17 07:24:00,
2013-06-17 03:27:00,67.1,66.5,30.05,SW,225,0.0,1.0,98,0.01,RA,,0.04,WeatherDisplay:10.37,2013-06-17 07:27:00,
2013-06-17 03:29:00,67.0,66.4,30.05,SW,225,0.0,0.0,98,0.01,RA,,0.04,WeatherDisplay:10.37,2013-06-17 07:29:00,
2013-06-17 03:32:00,67.1,66.5,30.05,SW,225,0.0,0.0,98,0.01,RA,,0.04,WeatherDisplay:10.37,2013-06-17 07:32:00,
2013-06-17 03:34:00,67.1,66.5,30.05,SW,225,0.0,0.0,98,0.01,RA,,0.04,WeatherDisplay:10.37,2013-06-17 07:34:00,
2013-06-17 03:37:00,67.1,66.5,30.05,SW,225,0.0,0.0,98,0.01,RA,,0.05,WeatherDisplay:10.37,2013-06-17 07:37:00,
2013-06-17 03:39:00,67.1,66.5,30.04,SW,225,0.0,0.0,98,0.01,RA,,0.05,WeatherDisplay:10.37,2013-06-17 07:39:00,
2013-06-17 03:42:00,67.1,66.5,30.05,SW,225,0.0,0.0,98,0.01,RA,,0.05,WeatherDisplay:10.37,2013-06-17 07:42:00,
2013-06-17 03:44:00,67.1,66.5,30.04,SW,225,0.0,0.0,98,0.01,RA,,0.05,WeatherDisplay:10.37,2013-06-17 07:44:00,
2013-06-17 03:47:00,67.1,66.5,30.04,SW,225,0.0,1.0,98,0.00,RA,,0.05,WeatherDisplay:10.37,2013-06-17 07:47:00,
2013-06-17 03:49:00,67.2,66.6,30.05,SW,225,0.0,0.0,98,0.00,RA,,0.05,WeatherDisplay:10.37,2013-06-17 07:49:00,
2013-06-17 03:52:00,67.2,66.6,30.05,SW,225,0.0,1.0,98,0.00,RA,,0.05,WeatherDisplay:10.37,2013-06-17 07:52:00,
2013-06-17 03:54:00,67.2,66.6,30.05,SW,225,0.0,0.0,98,0.00,RA,,0.05,WeatherDisplay:10.37,2013-06-17 07:54:00,
2013-06-17 03:57:00,67.1,66.5,30.05,SW,225,0.0,0.0,98,0.00,RA,,0.05,WeatherDisplay:10.37,2013-06-17 07:57:00,
2013-06-17 03:59:00,67.1,66.5,30.05,SW,225,0.0,0.0,98,0.00,RA,,0.05,WeatherDisplay:10.37,2013-06-17 07:59:00,
2013-06-17 04:02:00,67.1,66.5,30.05,SW,225,0.0,0.0,98,0.00,RA,,0.05,WeatherDisplay:10.37,2013-06-17 08:02:00,
2013-06-17 04:04:00,67.1,66.5,30.05,SW,225,0.0,0.0,98,0.00,RA,,0.05,WeatherDisplay:10.37,2013-06-17 08:04:00,
2013-06-17 04:07:00,67.1,66.5,30.05,SW,225,0.0,0.0,98,0.00,CLR,,0.05,WeatherDisplay:10.37,2013-06-17 08:07:00,
2013-06-17 04:09:00,67.1,66.5,30.05,SW,225,0.0,0.0,98,0.00,CLR,,0.05,WeatherDisplay:10.37,2013-06-17 08:09:00,
2013-06-17 04:12:00,67.1,66.5,30.05,SW,225,0.0,0.0,98,0.00,CLR,,0.05,WeatherDisplay:10.37,2013-06-17 08:12:00,
2013-06-17 04:14:00,67.1,66.5,30.05,SW,225,0.0,1.0,98,0.00,CLR,,0.05,WeatherDisplay:10.37,2013-06-17 08:14:00,
2013-06-17 04:17:00,67.1,66.5,30.05,SW,225,0.0,0.0,98,0.00,CLR,,0.05,WeatherDisplay:10.37,2013-06-17 08:17:00,
2013-06-17 04:19:00,67.0,66.4,30.05,SW,225,0.0,0.0,98,0.00,CLR,,0.05,WeatherDisplay:10.37,2013-06-17 08:19:00,
2013-06-17 04:22:00,67.0,66.4,30.05,SW,225,0.0,0.0,98,0.00,CLR,,0.05,WeatherDisplay:10.37,2013-06-17 08:22:00,
2013-06-17 04:24:00,67.0,66.4,30.05,SW,225,0.0,0.0,98,0.00,CLR,,0.05,WeatherDisplay:10.37,2013-06-17 08:24:00,
2013-06-17 04:27:00,67.0,66.4,30.04,SW,225,0.0,1.0,98,0.00,CLR,,0.05,WeatherDisplay:10.37,2013-06-17 08:27:00,
2013-06-17 04:29:00,67.0,66.4,30.04,SW,225,0.0,0.0,98,0.00,CLR,,0.05,WeatherDisplay:10.37,2013-06-17 08:29:00,
2013-06-17 04:32:00,67.0,66.4,30.04,SW,225,0.0,0.0,98,0.00,CLR,,0.05,WeatherDisplay:10.37,2013-06-17 08:32:00,
2013-06-17 04:34:00,67.0,66.4,30.04,SW,225,0.0,0.0,98,0.00,CLR,,0.05,WeatherDisplay:10.37,2013-06-17 08:34:00,
2013-06-17 04:37:00,67.0,66.4,30.04,SW,225,0.0,0.0,98,0.00,CLR,,0.05,WeatherDisplay:10.37,2013-06-17 08:37:00,
2013-06-17 04:39:00,66.9,66.3,30.04,SW,225,0.0,0.0,98,0.00,CLR,,0.05,WeatherDisplay:10.37,2013-06-17 08:39:00,
2013-06-17 04:42:00,66.9,66.3,30.04,SW,225,0.0,0.0,98,0.00,CLR,,0.05,WeatherDisplay:10.37,2013-06-17 08:42:00,
2013-06-17 04:44:00,66.9,66.3,30.04,SW,225,0.0,0.0,98,0.00,CLR,,0.05,WeatherDisplay:10.37,2013-06-17 08:44:00,
2013-06-17 04:47:00,66.9,66.3,30.04,SW,225,0.0,0.0,98,0.00,CLR,,0.05,WeatherDisplay:10.37,2013-06-17 08:47:00,
2013-06-17 04:49:00,67.0,66.4,30.04,SW,225,0.0,0.0,98,0.00,CLR,,0.05,WeatherDisplay:10.37,2013-06-17 08:49:00,
2013-06-17 04:52:00,67.0,66.4,30.04,SW,225,0.0,0.0,98,0.00,CLR,,0.05,WeatherDisplay:10.37,2013-06-17 08:52:00,
2013-06-17 04:54:00,67.0,66.4,30.04,SW,225,0.0,0.0,98,0.00,CLR,,0.05,WeatherDisplay:10.37,2013-06-17 08:54:00,
2013-06-17 04:57:00,67.1,66.5,30.04,SW,225,0.0,0.0,98,0.00,CLR,,0.05,WeatherDisplay:10.37,2013-06-17 08:57:00,
2013-06-17 04:59:00,67.1,66.5,30.04,SW,225,0.0,0.0,98,0.00,CLR,,0.05,WeatherDisplay:10.37,2013-06-17 08:59:00,
2013-06-17 05:02:00,67.1,66.5,30.05,SW,225,0.0,0.0,98,0.00,CLR,,0.05,WeatherDisplay:10.37,2013-06-17 09:02:00,
2013-06-17 05:04:00,67.1,66.5,30.05,SW,225,0.0,0.0,98,0.00,CLR,,0.05,WeatherDisplay:10.37,2013-06-17 09:04:00,
2013-06-17 05:07:00,67.0,66.4,30.05,SW,225,0.0,0.0,98,0.00,CLR,,0.05,WeatherDisplay:10.37,2013-06-17 09:07:00,
2013-06-17 05:09:00,67.0,66.4,30.05,SW,225,0.0,0.0,98,0.00,CLR,,0.05,WeatherDisplay:10.37,2013-06-17 09:09:00,
2013-06-17 05:12:00,67.0,66.4,30.05,SW,225,0.0,0.0,98,0.00,CLR,,0.05,WeatherDisplay:10.37,2013-06-17 09:12:00,
2013-06-17 05:14:00,67.0,66.4,30.05,SW,225,0.0,0.0,98,0.00,CLR,,0.05,WeatherDisplay:10.37,2013-06-17 09:14:00,
2013-06-17 05:17:00,67.0,66.4,30.05,SW,225,0.0,0.0,98,0.00,CLR,,0.05,WeatherDisplay:10.37,2013-06-17 09:17:00,
2013-06-17 05:19:00,67.0,66.4,30.05,SW,225,0.0,0.0,98,0.00,CLR,,0.05,WeatherDisplay:10.37,2013-06-17 09:19:00,
2013-06-17 05:22:00,67.0,66.4,30.05,SW,225,0.0,0.0,98,0.00,CLR,,0.05,WeatherDisplay:10.37,2013-06-17 09:22:00,
2013-06-17 05:24:00,67.0,66.4,30.05,SW,225,0.0,0.0,98,0.00,CLR,,0.05,WeatherDisplay:10.37,2013-06-17 09:24:00,
2013-06-17 05:27:00,66.9,66.3,30.05,SW,225,0.0,0.0,98,0.00,CLR,,0.05,WeatherDisplay:10.37,2013-06-17 09:27:00,
2013-06-17 05:29:00,66.9,66.3,30.05,SW,225,0.0,0.0,98,0.00,CLR,,0.05,WeatherDisplay:10.37,2013-06-17 09:29:00,
2013-06-17 05:32:00,66.9,66.3,30.05,SW,225,0.0,0.0,98,0.00,CLR,,0.05,WeatherDisplay:10.37,2013-06-17 09:32:00,
2013-06-17 05:34:00,66.9,66.3,30.05,SW,225,0.0,0.0,98,0.00,CLR,,0.05,WeatherDisplay:10.37,2013-06-17 09:34:00,
2013-06-17 05:37:00,66.9,66.6,30.05,SW,225,0.0,0.0,99,0.00,CLR,,0.05,WeatherDisplay:10.37,2013-06-17 09:37:00,
2013-06-17 05:39:00,66.9,66.6,30.05,SW,225,0.0,0.0,99,0.00,CLR,,0.05,WeatherDisplay:10.37,2013-06-17 09:39:00,
2013-06-17 05:42:00,66.9,66.3,30.05,SW,225,0.0,0.0,98,0.00,CLR,,0.05,WeatherDisplay:10.37,2013-06-17 09:42:00,
2013-06-17 05:44:00,66.9,66.3,30.05,SW,225,0.0,0.0,98,0.00,CLR,,0.05,WeatherDisplay:10.37,2013-06-17 09:44:00,
2013-06-17 05:47:00,66.9,66.3,30.06,SW,225,0.0,1.0,98,0.00,CLR,,0.05,WeatherDisplay:10.37,2013-06-17 09:47:00,
2013-06-17 05:49:00,66.9,66.6,30.06,SW,225,1.0,3.0,99,0.00,CLR,,0.05,WeatherDisplay:10.37,2013-06-17 09:49:00,
2013-06-17 05:52:00,66.8,66.2,30.05,SW,225,0.0,2.0,98,0.00,CLR,,0.05,WeatherDisplay:10.37,2013-06-17 09:52:00,
2013-06-17 05:54:00,66.8,66.2,30.05,SW,230,0.0,2.0,98,0.00,CLR,,0.05,WeatherDisplay:10.37,2013-06-17 09:54:00,
2013-06-17 05:57:00,66.8,66.5,30.05,SW,222,1.0,2.0,99,0.00,CLR,,0.05,WeatherDisplay:10.37,2013-06-17 09:57:00,
2013-06-17 05:59:00,66.8,66.5,30.05,SW,230,0.0,1.0,99,0.00,CLR,,0.05,WeatherDisplay:10.37,2013-06-17 09:59:00,
2013-06-17 06:02:00,66.8,66.5,30.05,WSW,241,0.0,0.0,99,0.00,CLR,,0.05,WeatherDisplay:10.37,2013-06-17 10:02:00,
2013-06-17 06:04:00,66.8,66.5,30.05,WSW,241,0.0,0.0,99,0.00,CLR,,0.05,WeatherDisplay:10.37,2013-06-17 10:04:00,
2013-06-17 06:07:00,66.7,66.4,30.05,WSW,248,0.0,0.0,99,0.00,CLR,,0.05,WeatherDisplay:10.37,2013-06-17 10:07:00,
2013-06-17 06:09:00,66.8,66.5,30.05,WSW,248,0.0,1.0,99,0.00,CLR,,0.05,WeatherDisplay:10.37,2013-06-17 10:09:00,
2013-06-17 06:12:00,66.7,66.4,30.05,WSW,248,0.0,0.0,99,0.00,CLR,,0.05,WeatherDisplay:10.37,2013-06-17 10:12:00,
2013-06-17 06:14:00,66.7,66.4,30.05,WSW,248,0.0,1.0,99,0.00,CLR,,0.05,WeatherDisplay:10.37,2013-06-17 10:14:00,
2013-06-17 06:17:00,66.8,66.5,30.05,WSW,248,0.0,1.0,99,0.00,CLR,,0.05,WeatherDisplay:10.37,2013-06-17 10:17:00,
2013-06-17 06:19:00,66.7,66.4,30.05,WSW,248,0.0,1.0,99,0.00,CLR,,0.05,WeatherDisplay:10.37,2013-06-17 10:19:00,
2013-06-17 06:22:00,66.7,66.4,30.05,WSW,248,0.0,1.0,99,0.00,CLR,,0.05,WeatherDisplay:10.37,2013-06-17 10:22:00,
2013-06-17 06:24:00,66.7,66.4,30.05,WSW,248,0.0,1.0,99,0.00,CLR,,0.05,WeatherDisplay:10.37,2013-06-17 10:24:00,
2013-06-17 06:27:00,66.7,66.4,30.05,WSW,248,0.0,0.0,99,0.00,CLR,,0.05,WeatherDisplay:10.37,2013-06-17 10:27:00,
2013-06-17 06:29:00,66.7,66.4,30.04,WSW,248,0.0,0.0,99,0.00,CLR,,0.05,WeatherDisplay:10.37,2013-06-17 10:29:00,
2013-06-17 06:32:00,66.7,66.4,30.04,WSW,248,0.0,0.0,99,0.00,CLR,,0.05,WeatherDisplay:10.37,2013-06-17 10:32:00,
2013-06-17 06:34:00,66.7,66.4,30.05,WSW,248,0.0,0.0,99,0.00,CLR,,0.05,WeatherDisplay:10.37,2013-06-17 10:34:00,
2013-06-17 06:37:00,66.7,66.4,30.05,WSW,248,0.0,0.0,99,0.00,CLR,,0.05,WeatherDisplay:10.37,2013-06-17 10:37:00,
2013-06-17 06:39:00,66.7,66.4,30.05,WSW,248,0.0,0.0,99,0.00,CLR,,0.05,WeatherDisplay:10.37,2013-06-17 10:39:00,
2013-06-17 06:42:00,66.8,66.5,30.05,WSW,248,0.0,0.0,99,0.00,CLR,,0.05,WeatherDisplay:10.37,2013-06-17 10:42:00,
2013-06-17 06:44:00,66.8,66.5,30.05,WSW,248,0.0,0.0,99,0.00,CLR,,0.05,WeatherDisplay:10.37,2013-06-17 10:44:00,
2013-06-17 06:47:00,66.8,66.5,30.05,WSW,248,0.0,0.0,99,0.00,CLR,,0.05,WeatherDisplay:10.37,2013-06-17 10:47:00,
2013-06-17 06:49:00,66.8,66.5,30.05,WSW,248,0.0,0.0,99,0.00,CLR,,0.05,WeatherDisplay:10.37,2013-06-17 10:49:00,
2013-06-17 06:52:00,66.8,66.5,30.05,WSW,248,0.0,0.0,99,0.00,CLR,,0.05,WeatherDisplay:10.37,2013-06-17 10:52:00,
2013-06-17 06:54:00,66.8,66.5,30.05,WSW,248,0.0,1.0,99,0.00,CLR,,0.05,WeatherDisplay:10.37,2013-06-17 10:54:00,
2013-06-17 06:57:00,66.8,66.5,30.05,WSW,248,0.0,0.0,99,0.00,CLR,,0.05,WeatherDisplay:10.37,2013-06-17 10:57:00,
2013-06-17 06:59:00,66.9,66.6,30.05,WSW,248,0.0,0.0,99,0.00,CLR,,0.05,WeatherDisplay:10.37,2013-06-17 10:59:00,
2013-06-17 07:02:00,66.9,66.6,30.05,WSW,248,0.0,0.0,99,0.00,CLR,,0.05,WeatherDisplay:10.37,2013-06-17 11:02:00,
2013-06-17 07:04:00,66.9,66.6,30.04,WSW,248,0.0,0.0,99,0.00,CLR,,0.05,WeatherDisplay:10.37,2013-06-17 11:04:00,
2013-06-17 07:07:00,66.9,66.6,30.05,WSW,248,0.0,1.0,99,0.00,CLR,,0.05,WeatherDisplay:10.37,2013-06-17 11:07:00,
2013-06-17 07:09:00,66.9,66.6,30.05,WSW,248,0.0,0.0,99,0.00,CLR,,0.05,WeatherDisplay:10.37,2013-06-17 11:09:00,
2013-06-17 07:12:00,67.0,66.7,30.05,WSW,248,0.0,1.0,99,0.00,CLR,,0.05,WeatherDisplay:10.37,2013-06-17 11:12:00,
2013-06-17 07:14:00,66.9,66.6,30.05,WSW,248,0.0,0.0,99,0.00,CLR,,0.05,WeatherDisplay:10.37,2013-06-17 11:14:00,
2013-06-17 07:17:00,66.9,66.6,30.05,WSW,248,0.0,0.0,99,0.00,CLR,,0.05,WeatherDisplay:10.37,2013-06-17 11:17:00,
2013-06-17 07:19:00,66.9,66.6,30.05,WSW,248,0.0,0.0,99,0.00,CLR,,0.05,WeatherDisplay:10.37,2013-06-17 11:19:00,
2013-06-17 07:22:00,66.9,66.6,30.05,WSW,248,0.0,0.0,99,0.00,CLR,,0.05,WeatherDisplay:10.37,2013-06-17 11:22:00,
2013-06-17 07:24:00,66.9,66.6,30.04,WSW,248,0.0,0.0,99,0.00,CLR,,0.05,WeatherDisplay:10.37,2013-06-17 11:24:00,
2013-06-17 07:27:00,66.9,66.6,30.04,WSW,248,0.0,0.0,99,0.00,CLR,,0.05,WeatherDisplay:10.37,2013-06-17 11:27:00,
2013-06-17 07:29:00,66.9,66.6,30.05,WSW,248,0.0,0.0,99,0.00,CLR,,0.05,WeatherDisplay:10.37,2013-06-17 11:29:00,
2013-06-17 07:32:00,67.0,66.7,30.05,WSW,248,0.0,0.0,99,0.00,CLR,,0.05,WeatherDisplay:10.37,2013-06-17 11:32:00,
2013-06-17 07:34:00,67.0,66.7,30.05,WSW,248,0.0,0.0,99,0.00,CLR,,0.05,WeatherDisplay:10.37,2013-06-17 11:34:00,
2013-06-17 07:37:00,67.0,66.7,30.05,WSW,248,0.0,0.0,99,0.00,CLR,,0.05,WeatherDisplay:10.37,2013-06-17 11:37:00,
2013-06-17 07:39:00,67.0,66.7,30.05,WSW,248,0.0,0.0,99,0.00,CLR,,0.05,WeatherDisplay:10.37,2013-06-17 11:39:00,
2013-06-17 07:42:00,67.0,66.7,30.05,WSW,248,0.0,0.0,99,0.00,CLR,,0.05,WeatherDisplay:10.37,2013-06-17 11:42:00,
2013-06-17 07:44:00,67.1,66.8,30.05,WSW,248,0.0,0.0,99,0.00,CLR,,0.05,WeatherDisplay:10.37,2013-06-17 11:44:00,
2013-06-17 07:47:00,67.0,66.7,30.05,WSW,248,0.0,0.0,99,0.00,CLR,,0.05,WeatherDisplay:10.37,2013-06-17 11:47:00,
2013-06-17 07:49:00,67.1,66.8,30.05,WSW,248,0.0,0.0,99,0.00,CLR,,0.05,WeatherDisplay:10.37,2013-06-17 11:49:00,
2013-06-17 07:52:00,67.1,66.8,30.05,WSW,248,0.0,0.0,99,0.00,CLR,,0.05,WeatherDisplay:10.37,2013-06-17 11:52:00,
2013-06-17 07:54:00,67.1,66.8,30.05,WSW,248,0.0,0.0,99,0.00,CLR,,0.05,WeatherDisplay:10.37,2013-06-17 11:54:00,
2013-06-17 07:57:00,67.1,66.8,30.05,WSW,248,0.0,0.0,99,0.00,CLR,,0.05,WeatherDisplay:10.37,2013-06-17 11:57:00,
2013-06-17 07:59:00,67.1,66.8,30.05,WSW,248,0.0,0.0,99,0.00,CLR,,0.05,WeatherDisplay:10.37,2013-06-17 11:59:00,
2013-06-17 08:02:00,67.1,66.8,30.05,WSW,248,0.0,0.0,99,0.00,CLR,,0.05,WeatherDisplay:10.37,2013-06-17 12:02:00,
2013-06-17 08:04:00,67.2,66.9,30.05,WSW,248,0.0,0.0,99,0.00,CLR,,0.05,WeatherDisplay:10.37,2013-06-17 12:04:00,
2013-06-17 08:07:00,67.2,66.9,30.05,WSW,248,0.0,1.0,99,0.00,CLR,,0.05,WeatherDisplay:10.37,2013-06-17 12:07:00,
2013-06-17 08:09:00,67.2,66.9,30.05,WSW,239,2.0,2.0,99,0.00,CLR,,0.05,WeatherDisplay:10.37,2013-06-17 12:09:00,
2013-06-17 08:12:00,67.2,66.9,30.05,WSW,239,0.0,1.0,99,0.00,CLR,,0.05,WeatherDisplay:10.37,2013-06-17 12:12:00,
2013-06-17 08:14:00,67.3,67.0,30.05,WSW,239,0.0,0.0,99,0.00,CLR,,0.05,WeatherDisplay:10.37,2013-06-17 12:14:00,
2013-06-17 08:17:00,67.4,67.1,30.05,WSW,239,0.0,0.0,99,0.00,CLR,,0.05,WeatherDisplay:10.37,2013-06-17 12:17:00,
2013-06-17 08:19:00,67.4,67.1,30.05,WSW,248,0.0,0.0,99,0.00,CLR,,0.05,WeatherDisplay:10.37,2013-06-17 12:19:00,
2013-06-17 08:22:00,67.4,67.1,30.05,WSW,248,0.0,0.0,99,0.00,CLR,,0.05,WeatherDisplay:10.37,2013-06-17 12:22:00,
2013-06-17 08:24:00,67.3,67.0,30.05,WSW,248,0.0,0.0,99,0.00,CLR,,0.05,WeatherDisplay:10.37,2013-06-17 12:24:00,
2013-06-17 08:27:00,67.3,67.0,30.06,WSW,248,0.0,0.0,99,0.00,CLR,,0.05,WeatherDisplay:10.37,2013-06-17 12:27:00,
2013-06-17 08:29:00,67.3,67.0,30.06,WSW,248,0.0,0.0,99,0.00,CLR,,0.05,WeatherDisplay:10.37,2013-06-17 12:29:00,
2013-06-17 08:32:00,67.4,67.1,30.06,WSW,248,0.0,0.0,99,0.00,CLR,,0.05,WeatherDisplay:10.37,2013-06-17 12:32:00,
2013-06-17 08:34:00,67.5,67.2,30.06,WSW,248,0.0,0.0,99,0.00,CLR,,0.05,WeatherDisplay:10.37,2013-06-17 12:34:00,
2013-06-17 08:37:00,67.5,67.2,30.05,WSW,248,0.0,0.0,99,0.00,CLR,,0.05,WeatherDisplay:10.37,2013-06-17 12:37:00,
2013-06-17 08:39:00,67.5,67.2,30.06,WSW,248,0.0,0.0,99,0.00,CLR,,0.05,WeatherDisplay:10.37,2013-06-17 12:39:00,
2013-06-17 08:42:00,67.6,67.3,30.05,WSW,248,0.0,0.0,99,0.00,CLR,,0.05,WeatherDisplay:10.37,2013-06-17 12:42:00,
2013-06-17 08:44:00,67.7,67.4,30.05,WSW,248,0.0,0.0,99,0.00,CLR,,0.05,WeatherDisplay:10.37,2013-06-17 12:44:00,
2013-06-17 08:47:00,67.8,67.5,30.05,WSW,248,0.0,0.0,99,0.00,CLR,,0.05,WeatherDisplay:10.37,2013-06-17 12:47:00,
2013-06-17 08:49:00,67.9,67.6,30.05,WSW,248,0.0,0.0,99,0.00,CLR,,0.05,WeatherDisplay:10.37,2013-06-17 12:49:00,
2013-06-17 08:52:00,68.1,67.8,30.05,WSW,248,0.0,0.0,99,0.00,CLR,,0.05,WeatherDisplay:10.37,2013-06-17 12:52:00,
2013-06-17 08:54:00,68.3,68.0,30.05,WSW,248,0.0,0.0,99,0.00,CLR,,0.05,WeatherDisplay:10.37,2013-06-17 12:54:00,
2013-06-17 08:57:00,68.5,68.2,30.05,WSW,248,0.0,0.0,99,0.00,CLR,,0.05,WeatherDisplay:10.37,2013-06-17 12:57:00,
2013-06-17 08:59:00,68.5,68.2,30.05,WSW,248,0.0,1.0,99,0.00,CLR,,0.05,WeatherDisplay:10.37,2013-06-17 12:59:00,
2013-06-17 09:02:00,68.5,68.2,30.05,WSW,248,0.0,0.0,99,0.00,CLR,,0.05,WeatherDisplay:10.37,2013-06-17 13:02:00,
2013-06-17 09:04:00,68.5,68.2,30.05,WSW,248,0.0,0.0,99,0.00,CLR,,0.05,WeatherDisplay:10.37,2013-06-17 13:04:00,
2013-06-17 09:07:00,68.8,68.5,30.05,WSW,248,0.0,0.0,99,0.00,CLR,,0.05,WeatherDisplay:10.37,2013-06-17 13:07:00,
2013-06-17 09:09:00,69.0,68.7,30.05,WSW,248,0.0,0.0,99,0.00,CLR,,0.05,WeatherDisplay:10.37,2013-06-17 13:09:00,
2013-06-17 09:12:00,69.2,68.9,30.05,WSW,248,0.0,0.0,99,0.00,CLR,,0.05,WeatherDisplay:10.37,2013-06-17 13:12:00,
2013-06-17 09:14:00,69.2,68.9,30.05,WSW,248,0.0,0.0,99,0.00,CLR,,0.05,WeatherDisplay:10.37,2013-06-17 13:14:00,
2013-06-17 09:17:00,69.3,69.0,30.05,WSW,248,0.0,0.0,99,0.00,CLR,,0.05,WeatherDisplay:10.37,2013-06-17 13:17:00,
2013-06-17 09:19:00,69.4,69.1,30.05,WSW,248,0.0,0.0,99,0.00,CLR,,0.05,WeatherDisplay:10.37,2013-06-17 13:19:00,
2013-06-17 09:22:00,69.3,68.7,30.05,WSW,248,0.0,0.0,98,0.00,CLR,,0.05,WeatherDisplay:10.37,2013-06-17 13:22:00,
2013-06-17 09:24:00,69.4,68.8,30.05,WSW,248,0.0,0.0,98,0.00,CLR,,0.05,WeatherDisplay:10.37,2013-06-17 13:24:00,
2013-06-17 09:27:00,69.6,69.3,30.05,WSW,248,0.0,0.0,99,0.00,CLR,,0.05,WeatherDisplay:10.37,2013-06-17 13:27:00,
2013-06-17 09:29:00,69.7,69.4,30.05,WSW,248,0.0,0.0,99,0.00,CLR,,0.05,WeatherDisplay:10.37,2013-06-17 13:29:00,
2013-06-17 09:32:00,69.9,69.6,30.05,WSW,248,0.0,0.0,99,0.00,CLR,,0.05,WeatherDisplay:10.37,2013-06-17 13:32:00,
2013-06-17 09:34:00,69.9,69.3,30.06,WSW,248,0.0,0.0,98,0.00,CLR,,0.05,WeatherDisplay:10.37,2013-06-17 13:34:00,
2013-06-17 09:37:00,70.2,69.9,30.05,WSW,248,0.0,0.0,99,0.00,CLR,,0.05,WeatherDisplay:10.37,2013-06-17 13:37:00,
2013-06-17 09:39:00,70.3,69.7,30.05,WSW,248,0.0,0.0,98,0.00,CLR,,0.05,WeatherDisplay:10.37,2013-06-17 13:39:00,
2013-06-17 09:42:00,70.3,69.7,30.05,WSW,248,0.0,0.0,98,0.00,CLR,,0.05,WeatherDisplay:10.37,2013-06-17 13:42:00,
2013-06-17 09:44:00,70.4,69.8,30.05,WSW,248,0.0,0.0,98,0.00,CLR,,0.05,WeatherDisplay:10.37,2013-06-17 13:44:00,
2013-06-17 09:47:00,70.5,69.9,30.05,WSW,248,0.0,1.0,98,0.00,CLR,,0.05,WeatherDisplay:10.37,2013-06-17 13:47:00,
2013-06-17 09:49:00,70.6,70.0,30.05,WSW,246,1.0,1.0,98,0.00,CLR,,0.05,WeatherDisplay:10.37,2013-06-17 13:49:00,
2013-06-17 09:52:00,70.7,69.5,30.05,WSW,239,0.0,1.0,96,0.00,CLR,,0.05,WeatherDisplay:10.37,2013-06-17 13:52:00,
2013-06-17 09:54:00,70.9,70.0,30.05,SW,234,0.0,0.0,97,0.00,CLR,,0.05,WeatherDisplay:10.37,2013-06-17 13:54:00,
2013-06-17 09:57:00,71.1,69.9,30.05,SW,227,0.0,1.0,96,0.00,CLR,,0.05,WeatherDisplay:10.37,2013-06-17 13:57:00,
2013-06-17 09:59:00,71.4,70.2,30.05,SW,225,0.0,0.0,96,0.00,CLR,,0.05,WeatherDisplay:10.37,2013-06-17 13:59:00,
2013-06-17 10:02:00,71.6,70.4,30.05,SW,225,0.0,0.0,96,0.00,CLR,,0.05,WeatherDisplay:10.37,2013-06-17 14:02:00,
2013-06-17 10:04:00,71.8,70.6,30.05,SW,225,0.0,0.0,96,0.00,CLR,,0.05,WeatherDisplay:10.37,2013-06-17 14:04:00,
2013-06-17 10:07:00,72.1,70.6,30.05,SW,225,0.0,0.0,95,0.00,CLR,,0.05,WeatherDisplay:10.37,2013-06-17 14:07:00,
2013-06-17 10:09:00,72.3,70.8,30.05,SW,225,0.0,0.0,95,0.00,CLR,,0.05,WeatherDisplay:10.37,2013-06-17 14:09:00,
2013-06-17 10:12:00,72.6,70.5,30.05,SW,225,0.0,1.0,93,0.00,CLR,,0.05,WeatherDisplay:10.37,2013-06-17 14:12:00,
2013-06-17 10:14:00,72.8,70.7,30.04,SW,225,0.0,0.0,93,0.00,CLR,,0.05,WeatherDisplay:10.37,2013-06-17 14:14:00,
2013-06-17 10:17:00,73.1,70.6,30.04,SW,225,0.0,0.0,92,0.00,CLR,,0.05,WeatherDisplay:10.37,2013-06-17 14:17:00,
2013-06-17 10:19:00,73.3,70.5,30.04,SW,225,0.0,1.0,91,0.00,CLR,,0.05,WeatherDisplay:10.37,2013-06-17 14:19:00,
2013-06-17 10:22:00,73.6,70.8,30.04,SW,225,0.0,0.0,91,0.00,CLR,,0.05,WeatherDisplay:10.37,2013-06-17 14:22:00,
2013-06-17 10:24:00,73.8,71.0,30.04,SW,225,0.0,1.0,91,0.00,CLR,,0.05,WeatherDisplay:10.37,2013-06-17 14:24:00,
2013-06-17 10:27:00,73.9,70.1,30.04,SW,225,0.0,1.0,88,0.00,CLR,,0.05,WeatherDisplay:10.37,2013-06-17 14:27:00,
2013-06-17 10:29:00,74.0,70.2,30.04,SW,225,0.0,1.0,88,0.00,CLR,,0.05,WeatherDisplay:10.37,2013-06-17 14:29:00,
2013-06-17 10:32:00,74.1,69.3,30.04,SW,225,0.0,1.0,85,0.00,CLR,,0.05,WeatherDisplay:10.37,2013-06-17 14:32:00,
2013-06-17 10:34:00,74.3,70.2,30.04,SW,225,0.0,0.0,87,0.00,CLR,,0.05,WeatherDisplay:10.37,2013-06-17 14:34:00,
2013-06-17 10:37:00,74.5,69.7,30.04,SW,225,0.0,1.0,85,0.00,CLR,,0.05,WeatherDisplay:10.37,2013-06-17 14:37:00,
2013-06-17 10:39:00,74.5,68.3,30.04,SW,225,0.0,1.0,81,0.00,CLR,,0.05,WeatherDisplay:10.37,2013-06-17 14:39:00,
2013-06-17 10:42:00,74.7,69.2,30.04,SW,225,0.0,0.0,83,0.00,CLR,,0.05,WeatherDisplay:10.37,2013-06-17 14:42:00,
2013-06-17 10:44:00,74.8,68.9,30.04,SW,225,0.0,0.0,82,0.00,CLR,,0.05,WeatherDisplay:10.37,2013-06-17 14:44:00,
2013-06-17 10:47:00,75.0,69.5,30.04,SW,225,0.0,0.0,83,0.00,CLR,,0.05,WeatherDisplay:10.37,2013-06-17 14:47:00,
2013-06-17 10:49:00,75.1,68.5,30.04,SW,225,0.0,1.0,80,0.00,CLR,,0.05,WeatherDisplay:10.37,2013-06-17 14:49:00,
2013-06-17 10:52:00,75.4,69.2,30.04,SW,225,0.0,1.0,81,0.00,CLR,,0.05,WeatherDisplay:10.37,2013-06-17 14:52:00,
2013-06-17 10:54:00,75.5,69.6,30.04,SW,225,0.0,0.0,82,0.00,CLR,,0.05,WeatherDisplay:10.37,2013-06-17 14:54:00,
2013-06-17 10:57:00,75.8,70.6,30.04,SW,225,0.0,0.0,84,0.00,CLR,,0.05,WeatherDisplay:10.37,2013-06-17 14:57:00,
2013-06-17 10:59:00,76.0,70.8,30.04,SW,225,0.0,0.0,84,0.00,CLR,,0.05,WeatherDisplay:10.37,2013-06-17 14:59:00,
2013-06-17 11:02:00,76.2,70.7,30.04,SW,225,0.0,0.0,83,0.00,CLR,,0.05,WeatherDisplay:10.37,2013-06-17 15:02:00,
2013-06-17 11:04:00,76.2,70.3,30.04,SW,225,0.0,0.0,82,0.00,CLR,,0.05,WeatherDisplay:10.37,2013-06-17 15:04:00,
2013-06-17 11:07:00,76.1,70.6,30.04,SW,225,0.0,0.0,83,0.00,CLR,,0.05,WeatherDisplay:10.37,2013-06-17 15:07:00,
2013-06-17 11:09:00,76.1,70.6,30.04,SW,225,0.0,0.0,83,0.00,CLR,,0.05,WeatherDisplay:10.37,2013-06-17 15:09:00,
2013-06-17 11:12:00,76.1,70.6,30.04,SW,225,0.0,1.0,83,0.00,CLR,,0.05,WeatherDisplay:10.37,2013-06-17 15:12:00,
2013-06-17 11:14:00,76.3,70.0,30.04,SW,225,0.0,1.0,81,0.00,CLR,,0.05,WeatherDisplay:10.37,2013-06-17 15:14:00,
2013-06-17 11:17:00,76.7,70.8,30.04,SW,225,0.0,0.0,82,0.00,CLR,,0.05,WeatherDisplay:10.37,2013-06-17 15:17:00,
2013-06-17 11:19:00,76.9,71.0,30.04,SW,225,0.0,0.0,82,0.00,CLR,,0.05,WeatherDisplay:10.37,2013-06-17 15:19:00,
2013-06-17 11:22:00,77.3,71.0,30.04,SW,225,0.0,1.0,81,0.00,CLR,,0.05,WeatherDisplay:10.37,2013-06-17 15:22:00,
2013-06-17 11:24:00,77.7,70.7,30.04,SW,225,0.0,1.0,79,0.00,CLR,,0.05,WeatherDisplay:10.37,2013-06-17 15:24:00,
2013-06-17 11:27:00,78.4,71.0,30.04,SW,225,0.0,1.0,78,0.00,CLR,,0.05,WeatherDisplay:10.37,2013-06-17 15:27:00,
2013-06-17 11:29:00,78.7,71.3,30.04,SW,225,0.0,0.0,78,0.00,CLR,,0.05,WeatherDisplay:10.37,2013-06-17 15:29:00,
2013-06-17 11:32:00,79.3,69.5,30.04,SW,225,0.0,1.0,72,0.00,CLR,,0.05,WeatherDisplay:10.37,2013-06-17 15:32:00,
2013-06-17 11:34:00,79.6,70.2,30.04,SW,225,0.0,1.0,73,0.00,CLR,,0.05,WeatherDisplay:10.37,2013-06-17 15:34:00,
2013-06-17 11:37:00,79.9,70.9,30.04,SW,225,0.0,0.0,74,0.00,CLR,,0.05,WeatherDisplay:10.37,2013-06-17 15:37:00,
2013-06-17 11:39:00,79.8,70.8,30.04,SW,225,0.0,0.0,74,0.00,CLR,,0.05,WeatherDisplay:10.37,2013-06-17 15:39:00,
2013-06-17 11:42:00,79.8,70.8,30.04,SW,225,0.0,1.0,74,0.00,CLR,,0.05,WeatherDisplay:10.37,2013-06-17 15:42:00,
2013-06-17 11:44:00,79.9,70.1,30.04,SW,225,0.0,1.0,72,0.00,CLR,,0.05,WeatherDisplay:10.37,2013-06-17 15:44:00,
2013-06-17 11:47:00,79.7,69.5,30.04,SW,227,0.0,2.0,71,0.00,CLR,,0.05,WeatherDisplay:10.37,2013-06-17 15:47:00,
2013-06-17 11:49:00,79.7,69.9,30.04,SW,227,0.0,1.0,72,0.00,CLR,,0.05,WeatherDisplay:10.37,2013-06-17 15:49:00,
2013-06-17 11:52:00,79.7,69.5,30.04,SW,227,0.0,2.0,71,0.00,CLR,,0.05,WeatherDisplay:10.37,2013-06-17 15:52:00,
2013-06-17 11:54:00,79.7,69.5,30.04,SW,225,1.0,2.0,71,0.00,CLR,,0.05,WeatherDisplay:10.37,2013-06-17 15:54:00,
2013-06-17 11:57:00,79.4,69.2,30.04,SW,236,0.0,2.0,71,0.00,CLR,,0.05,WeatherDisplay:10.37,2013-06-17 15:57:00,
2013-06-17 11:59:00,79.4,69.6,30.04,WSW,246,0.0,1.0,72,0.00,CLR,,0.05,WeatherDisplay:10.37,2013-06-17 15:59:00,
2013-06-17 12:02:00,79.2,69.8,30.04,West,261,0.0,0.0,73,0.00,CLR,,0.05,WeatherDisplay:10.37,2013-06-17 16:02:00,
2013-06-17 12:04:00,79.1,70.1,30.04,West,270,0.0,0.0,74,0.00,CLR,,0.05,WeatherDisplay:10.37,2013-06-17 16:04:00,
2013-06-17 12:07:00,79.1,70.5,30.04,West,270,0.0,0.0,75,0.00,CLR,,0.05,WeatherDisplay:10.37,2013-06-17 16:07:00,
2013-06-17 12:09:00,79.2,70.6,30.04,West,270,0.0,0.0,75,0.00,CLR,,0.05,WeatherDisplay:10.37,2013-06-17 16:09:00,
2013-06-17 12:12:00,79.5,70.5,30.04,West,270,0.0,0.0,74,0.00,CLR,,0.05,WeatherDisplay:10.37,2013-06-17 16:12:00,
2013-06-17 12:14:00,79.6,70.6,30.04,West,270,0.0,0.0,74,0.00,CLR,,0.05,WeatherDisplay:10.37,2013-06-17 16:14:00,
2013-06-17 12:17:00,79.4,70.8,30.04,West,270,0.0,1.0,75,0.00,CLR,,0.05,WeatherDisplay:10.37,2013-06-17 16:17:00,
2013-06-17 12:19:00,79.6,71.0,30.04,West,270,0.0,0.0,75,0.00,CLR,,0.05,WeatherDisplay:10.37,2013-06-17 16:19:00,
2013-06-17 12:22:00,80.1,70.3,30.04,West,270,0.0,1.0,72,0.00,CLR,,0.05,WeatherDisplay:10.37,2013-06-17 16:22:00,
2013-06-17 12:24:00,80.6,72.3,30.04,West,270,0.0,1.0,76,0.00,CLR,,0.05,WeatherDisplay:10.37,2013-06-17 16:24:00,
2013-06-17 12:27:00,81.1,69.5,30.03,West,259,1.0,2.0,68,0.00,CLR,,0.05,WeatherDisplay:10.37,2013-06-17 16:27:00,
2013-06-17 12:29:00,81.1,70.0,30.03,WSW,245,0.0,1.0,69,0.00,CLR,,0.05,WeatherDisplay:10.37,2013-06-17 16:29:00,
2013-06-17 12:32:00,81.0,69.9,30.03,WSW,250,2.0,3.0,69,0.00,CLR,,0.05,WeatherDisplay:10.37,2013-06-17 16:32:00,
2013-06-17 12:34:00,80.8,69.7,30.04,WSW,251,1.0,3.0,69,0.00,CLR,,0.05,WeatherDisplay:10.37,2013-06-17 16:34:00,
2013-06-17 12:37:00,81.0,69.9,30.03,WSW,249,0.0,2.0,69,0.00,CLR,,0.05,WeatherDisplay:10.37,2013-06-17 16:37:00,
2013-06-17 12:39:00,81.2,70.5,30.03,WSW,257,1.0,2.0,70,0.00,CLR,,0.05,WeatherDisplay:10.37,2013-06-17 16:39:00,
2013-06-17 12:42:00,81.9,70.7,30.03,SW,231,0.0,2.0,69,0.00,CLR,,0.05,WeatherDisplay:10.37,2013-06-17 16:42:00,
2013-06-17 12:44:00,82.5,71.3,30.03,SSW,204,0.0,1.0,69,0.00,CLR,,0.05,WeatherDisplay:10.37,2013-06-17 16:44:00,
2013-06-17 12:47:00,83.2,71.5,30.03,South,189,1.0,2.0,68,0.00,CLR,,0.05,WeatherDisplay:10.37,2013-06-17 16:47:00,
2013-06-17 12:49:00,83.7,72.9,30.03,SSW,194,0.0,1.0,70,0.00,CLR,,0.05,WeatherDisplay:10.37,2013-06-17 16:49:00,
2013-06-17 12:52:00,84.1,72.0,30.02,SW,230,0.0,0.0,67,0.00,CLR,,0.05,WeatherDisplay:10.37,2013-06-17 16:52:00,
2013-06-17 12:54:00,84.2,70.7,30.02,SW,235,1.0,2.0,64,0.00,CLR,,0.05,WeatherDisplay:10.37,2013-06-17 16:54:00,
2013-06-17 12:57:00,84.0,69.6,30.03,WSW,243,1.0,4.0,62,0.00,CLR,,0.05,WeatherDisplay:10.37,2013-06-17 16:57:00,
2013-06-17 12:59:00,83.7,69.3,30.02,WSW,238,0.0,1.0,62,0.00,CLR,,0.05,WeatherDisplay:10.37,2013-06-17 16:59:00,
2013-06-17 13:02:00,83.6,69.7,30.02,SW,232,0.0,1.0,63,0.00,CLR,,0.05,WeatherDisplay:10.37,2013-06-17 17:02:00,
2013-06-17 13:04:00,84.2,71.2,30.02,WSW,242,0.0,0.0,65,0.00,CLR,,0.05,WeatherDisplay:10.37,2013-06-17 17:04:00,
2013-06-17 13:07:00,85.3,72.2,30.02,WSW,248,0.0,1.0,65,0.00,CLR,,0.05,WeatherDisplay:10.37,2013-06-17 17:07:00,
2013-06-17 13:09:00,85.8,71.7,30.02,WSW,250,1.0,1.0,63,0.00,CLR,,0.05,WeatherDisplay:10.37,2013-06-17 17:09:00,
2013-06-17 13:12:00,85.7,72.6,30.02,SW,235,1.0,2.0,65,0.00,CLR,,0.05,WeatherDisplay:10.37,2013-06-17 17:12:00,
2013-06-17 13:14:00,85.4,72.7,30.02,South,178,1.0,1.0,66,0.00,CLR,,0.05,WeatherDisplay:10.37,2013-06-17 17:14:00,
2013-06-17 13:17:00,85.3,70.8,30.02,ESE,113,0.0,1.0,62,0.00,CLR,,0.05,WeatherDisplay:10.37,2013-06-17 17:17:00,
2013-06-17 13:19:00,85.6,72.0,30.02,ESE,108,0.0,1.0,64,0.00,CLR,,0.05,WeatherDisplay:10.37,2013-06-17 17:19:00,
2013-06-17 13:22:00,86.4,72.8,30.02,ESE,112,0.0,1.0,64,0.00,CLR,,0.05,WeatherDisplay:10.37,2013-06-17 17:22:00,
2013-06-17 13:24:00,86.9,73.3,30.02,ESE,121,2.0,4.0,64,0.00,CLR,,0.05,WeatherDisplay:10.37,2013-06-17 17:24:00,
2013-06-17 13:27:00,86.7,69.6,30.02,SE,142,1.0,2.0,57,0.00,CLR,,0.05,WeatherDisplay:10.37,2013-06-17 17:27:00,
2013-06-17 13:29:00,86.7,72.1,30.02,SE,142,0.0,1.0,62,0.00,CLR,,0.05,WeatherDisplay:10.37,2013-06-17 17:29:00,
2013-06-17 13:32:00,87.0,71.9,30.02,SE,131,1.0,2.0,61,0.00,CLR,,0.05,WeatherDisplay:10.37,2013-06-17 17:32:00,
2013-06-17 13:34:00,87.2,72.1,30.02,ENE,68,0.0,1.0,61,0.00,CLR,,0.05,WeatherDisplay:10.37,2013-06-17 17:34:00,
2013-06-17 13:37:00,87.6,72.5,30.02,NE,54,2.0,3.0,61,0.00,CLR,,0.05,WeatherDisplay:10.37,2013-06-17 17:37:00,
2013-06-17 13:39:00,87.2,71.6,30.02,NNE,20,2.0,3.0,60,0.00,CLR,,0.05,WeatherDisplay:10.37,2013-06-17 17:39:00,
2013-06-17 13:42:00,87.1,73.9,30.02,North,357,1.0,2.0,65,0.00,CLR,,0.05,WeatherDisplay:10.37,2013-06-17 17:42:00,
2013-06-17 13:44:00,86.9,72.8,30.02,North,354,1.0,3.0,63,0.00,CLR,,0.05,WeatherDisplay:10.37,2013-06-17 17:44:00,
2013-06-17 13:47:00,86.5,72.9,30.02,SW,236,0.0,2.0,64,0.00,CLR,,0.05,WeatherDisplay:10.37,2013-06-17 17:47:00,
2013-06-17 13:49:00,86.1,73.0,30.02,East,101,0.0,1.0,65,0.00,CLR,,0.05,WeatherDisplay:10.37,2013-06-17 17:49:00,
2013-06-17 13:52:00,85.8,73.1,30.02,SE,141,1.0,4.0,66,0.00,CLR,,0.05,WeatherDisplay:10.37,2013-06-17 17:52:00,
2013-06-17 13:54:00,85.6,72.0,30.02,SE,144,1.0,2.0,64,0.00,CLR,,0.05,WeatherDisplay:10.37,2013-06-17 17:54:00,
2013-06-17 13:57:00,85.1,72.9,30.02,ESE,118,0.0,1.0,67,0.00,CLR,,0.05,WeatherDisplay:10.37,2013-06-17 17:57:00,
2013-06-17 13:59:00,84.9,72.3,30.02,NW,312,0.0,3.0,66,0.00,CLR,,0.05,WeatherDisplay:10.37,2013-06-17 17:59:00,
2013-06-17 14:02:00,85.1,72.9,30.02,NNW,337,0.0,1.0,67,0.00,CLR,,0.05,WeatherDisplay:10.37,2013-06-17 18:02:00,
2013-06-17 14:04:00,85.4,73.2,30.02,NW,313,0.0,1.0,67,0.00,CLR,,0.05,WeatherDisplay:10.37,2013-06-17 18:04:00,
2013-06-17 14:07:00,85.6,72.0,30.02,WNW,292,0.0,1.0,64,0.00,CLR,,0.05,WeatherDisplay:10.37,2013-06-17 18:07:00,
2013-06-17 14:09:00,85.7,71.7,30.02,WNW,292,0.0,0.0,63,0.00,CLR,,0.05,WeatherDisplay:10.37,2013-06-17 18:09:00,
2013-06-17 14:12:00,85.8,70.8,30.02,WNW,292,0.0,0.0,61,0.00,CLR,,0.05,WeatherDisplay:10.37,2013-06-17 18:12:00,
2013-06-17 14:14:00,85.6,71.6,30.02,WNW,292,0.0,1.0,63,0.00,CLR,,0.05,WeatherDisplay:10.37,2013-06-17 18:14:00,
2013-06-17 14:17:00,84.4,71.3,30.02,WNW,292,0.0,0.0,65,0.00,CLR,,0.05,WeatherDisplay:10.37,2013-06-17 18:17:00,
2013-06-17 14:19:00,84.0,71.9,30.02,WNW,292,0.0,0.0,67,0.00,CLR,,0.05,WeatherDisplay:10.37,2013-06-17 18:19:00,
2013-06-17 14:22:00,83.9,71.8,30.01,WNW,292,0.0,1.0,67,0.00,CLR,,0.05,WeatherDisplay:10.37,2013-06-17 18:22:00,
2013-06-17 14:24:00,84.2,72.9,30.01,WNW,292,0.0,1.0,69,0.00,CLR,,0.05,WeatherDisplay:10.37,2013-06-17 18:24:00,
2013-06-17 14:27:00,84.2,72.5,30.01,WNW,303,0.0,2.0,68,0.00,CLR,,0.05,WeatherDisplay:10.37,2013-06-17 18:27:00,
2013-06-17 14:29:00,84.1,71.5,30.01,NNW,330,1.0,1.0,66,0.00,CLR,,0.05,WeatherDisplay:10.37,2013-06-17 18:29:00,
2013-06-17 14:32:00,84.0,72.3,30.01,NE,44,0.0,1.0,68,0.00,CLR,,0.05,WeatherDisplay:10.37,2013-06-17 18:32:00,
2013-06-17 14:34:00,84.1,72.0,30.01,ENE,63,0.0,1.0,67,0.00,CLR,,0.05,WeatherDisplay:10.37,2013-06-17 18:34:00,
2013-06-17 14:37:00,84.0,71.9,30.01,NE,50,1.0,3.0,67,0.00,CLR,,0.05,WeatherDisplay:10.37,2013-06-17 18:37:00,
2013-06-17 14:39:00,83.7,72.0,30.01,NNE,17,0.0,2.0,68,0.00,CLR,,0.05,WeatherDisplay:10.37,2013-06-17 18:39:00,
2013-06-17 14:42:00,83.7,72.9,30.00,West,269,0.0,1.0,70,0.00,CLR,,0.05,WeatherDisplay:10.37,2013-06-17 18:42:00,
2013-06-17 14:44:00,83.6,72.8,30.00,West,269,0.0,2.0,70,0.00,CLR,,0.05,WeatherDisplay:10.37,2013-06-17 18:44:00,
2013-06-17 14:47:00,83.4,72.2,30.00,West,270,0.0,1.0,69,0.00,CLR,,0.05,WeatherDisplay:10.37,2013-06-17 18:47:00,
2013-06-17 14:49:00,83.3,72.1,30.00,West,279,0.0,0.0,69,0.00,CLR,,0.05,WeatherDisplay:10.37,2013-06-17 18:49:00,
2013-06-17 14:52:00,82.8,72.4,30.00,WNW,300,0.0,1.0,71,0.00,CLR,,0.05,WeatherDisplay:10.37,2013-06-17 18:52:00,
2013-06-17 14:54:00,82.4,71.2,30.00,NW,310,0.0,0.0,69,0.00,CLR,,0.05,WeatherDisplay:10.37,2013-06-17 18:54:00,
2013-06-17 14:57:00,81.9,70.7,30.00,NW,324,0.0,0.0,69,0.00,CLR,,0.05,WeatherDisplay:10.37,2013-06-17 18:57:00,
2013-06-17 14:59:00,81.6,70.9,30.00,NNW,334,0.0,0.0,70,0.00,CLR,,0.05,WeatherDisplay:10.37,2013-06-17 18:59:00,
2013-06-17 15:02:00,81.6,71.3,30.00,NNW,338,0.0,1.0,71,0.00,CLR,,0.05,WeatherDisplay:10.37,2013-06-17 19:02:00,
2013-06-17 15:04:00,82.0,71.7,30.00,NNW,338,0.0,0.0,71,0.00,CLR,,0.05,WeatherDisplay:10.37,2013-06-17 19:04:00,
2013-06-17 15:07:00,82.9,72.5,30.00,NNW,331,1.0,3.0,71,0.00,CLR,,0.05,WeatherDisplay:10.37,2013-06-17 19:07:00,
2013-06-17 15:09:00,83.4,72.6,29.99,NW,321,1.0,1.0,70,0.00,CLR,,0.05,WeatherDisplay:10.37,2013-06-17 19:09:00,
2013-06-17 15:12:00,84.6,73.7,29.99,SSE,168,0.0,1.0,70,0.00,CLR,,0.05,WeatherDisplay:10.37,2013-06-17 19:12:00,
2013-06-17 15:14:00,85.3,73.1,30.00,SSE,152,0.0,1.0,67,0.00,CLR,,0.05,WeatherDisplay:10.37,2013-06-17 19:14:00,
2013-06-17 15:17:00,85.9,72.8,30.00,SE,132,1.0,2.0,65,0.00,CLR,,0.05,WeatherDisplay:10.37,2013-06-17 19:17:00,
2013-06-17 15:19:00,86.0,72.9,30.00,ESE,119,1.0,2.0,65,0.00,CLR,,0.05,WeatherDisplay:10.37,2013-06-17 19:19:00,
2013-06-17 15:22:00,86.0,72.9,30.00,East,89,1.0,2.0,65,0.00,CLR,,0.05,WeatherDisplay:10.37,2013-06-17 19:22:00,
2013-06-17 15:24:00,86.3,73.6,30.00,East,88,1.0,2.0,66,0.00,CLR,,0.05,WeatherDisplay:10.37,2013-06-17 19:24:00,
2013-06-17 15:27:00,87.0,73.3,29.99,East,96,0.0,1.0,64,0.00,CLR,,0.05,WeatherDisplay:10.37,2013-06-17 19:27:00,
2013-06-17 15:29:00,87.2,72.1,29.99,East,90,1.0,1.0,61,0.00,CLR,,0.05,WeatherDisplay:10.37,2013-06-17 19:29:00,
2013-06-17 15:32:00,87.3,72.7,29.99,ESE,121,1.0,2.0,62,0.00,CLR,,0.05,WeatherDisplay:10.37,2013-06-17 19:32:00,
2013-06-17 15:34:00,87.6,72.5,29.99,SE,126,1.0,3.0,61,0.00,CLR,,0.05,WeatherDisplay:10.37,2013-06-17 19:34:00,
2013-06-17 15:37:00,88.0,72.9,29.99,SE,129,1.0,2.0,61,0.00,CLR,,0.05,WeatherDisplay:10.37,2013-06-17 19:37:00,
2013-06-17 15:39:00,88.1,73.0,29.99,ESE,123,0.0,2.0,61,0.00,CLR,,0.05,WeatherDisplay:10.37,2013-06-17 19:39:00,
2013-06-17 15:42:00,88.1,73.4,29.99,East,87,0.0,2.0,62,0.00,CLR,,0.05,WeatherDisplay:10.37,2013-06-17 19:42:00,
2013-06-17 15:44:00,87.9,72.3,29.99,NNW,338,0.0,2.0,60,0.00,CLR,,0.05,WeatherDisplay:10.37,2013-06-17 19:44:00,
2013-06-17 15:47:00,88.1,73.9,29.99,NW,305,0.0,1.0,63,0.00,CLR,,0.05,WeatherDisplay:10.37,2013-06-17 19:47:00,
2013-06-17 15:49:00,87.9,73.3,29.98,West,277,2.0,5.0,62,0.00,CLR,,0.05,WeatherDisplay:10.37,2013-06-17 19:49:00,
2013-06-17 15:52:00,87.4,73.7,29.98,West,262,1.0,6.0,64,0.00,CLR,,0.05,WeatherDisplay:10.37,2013-06-17 19:52:00,
2013-06-17 15:54:00,87.2,73.5,29.98,WSW,252,1.0,3.0,64,0.00,CLR,,0.05,WeatherDisplay:10.37,2013-06-17 19:54:00,
2013-06-17 15:57:00,87.0,73.3,29.98,SSW,213,1.0,4.0,64,0.00,CLR,,0.05,WeatherDisplay:10.37,2013-06-17 19:57:00,
2013-06-17 15:59:00,86.7,73.5,29.98,SSW,199,1.0,3.0,65,0.00,CLR,,0.05,WeatherDisplay:10.37,2013-06-17 19:59:00,
2013-06-17 16:02:00,86.6,73.4,29.98,ESE,104,1.0,4.0,65,0.00,CLR,,0.05,WeatherDisplay:10.37,2013-06-17 20:02:00,
2013-06-17 16:04:00,86.5,73.8,29.98,ESE,107,1.0,2.0,66,0.00,CLR,,0.05,WeatherDisplay:10.37,2013-06-17 20:04:00,
2013-06-17 16:07:00,86.4,72.8,29.98,SSE,161,2.0,5.0,64,0.00,CLR,,0.05,WeatherDisplay:10.37,2013-06-17 20:07:00,
2013-06-17 16:09:00,85.9,72.3,29.98,South,173,1.0,5.0,64,0.00,CLR,,0.05,WeatherDisplay:10.37,2013-06-17 20:09:00,
2013-06-17 16:12:00,85.3,72.2,29.98,SW,217,1.0,3.0,65,0.00,CLR,,0.05,WeatherDisplay:10.37,2013-06-17 20:12:00,
2013-06-17 16:14:00,85.0,72.4,29.98,SW,227,2.0,6.0,66,0.00,CLR,,0.05,WeatherDisplay:10.37,2013-06-17 20:14:00,
2013-06-17 16:17:00,84.8,73.5,29.98,SW,226,2.0,5.0,69,0.00,CLR,,0.05,WeatherDisplay:10.37,2013-06-17 20:17:00,
2013-06-17 16:19:00,84.6,73.3,29.98,South,181,1.0,3.0,69,0.00,CLR,,0.05,WeatherDisplay:10.37,2013-06-17 20:19:00,
2013-06-17 16:22:00,84.3,73.0,29.98,SSE,148,1.0,3.0,69,0.00,CLR,,0.05,WeatherDisplay:10.37,2013-06-17 20:22:00,
2013-06-17 16:24:00,83.8,72.1,29.98,SSE,163,1.0,5.0,68,0.00,CLR,,0.05,WeatherDisplay:10.37,2013-06-17 20:24:00,
2013-06-17 16:27:00,83.1,72.3,29.97,SW,215,1.0,4.0,70,0.00,CLR,,0.05,WeatherDisplay:10.37,2013-06-17 20:27:00,
2013-06-17 16:29:00,82.7,71.9,29.98,WSW,239,1.0,2.0,70,0.00,CLR,,0.05,WeatherDisplay:10.37,2013-06-17 20:29:00,
2013-06-17 16:32:00,82.1,72.2,29.98,West,281,1.0,3.0,72,0.00,CLR,,0.05,WeatherDisplay:10.37,2013-06-17 20:32:00,
2013-06-17 16:34:00,81.8,71.9,29.97,WNW,297,1.0,2.0,72,0.00,CLR,,0.05,WeatherDisplay:10.37,2013-06-17 20:34:00,
2013-06-17 16:37:00,81.6,72.5,29.97,WNW,293,0.0,5.0,74,0.00,CLR,,0.05,WeatherDisplay:10.37,2013-06-17 20:37:00,
2013-06-17 16:39:00,81.4,72.3,29.97,NW,325,1.0,3.0,74,0.00,CLR,,0.05,WeatherDisplay:10.37,2013-06-17 20:39:00,
2013-06-17 16:42:00,80.7,71.2,29.97,NE,55,1.0,3.0,73,0.00,CLR,,0.05,WeatherDisplay:10.37,2013-06-17 20:42:00,
2013-06-17 16:44:00,80.3,70.9,29.97,East,80,1.0,3.0,73,0.00,CLR,,0.05,WeatherDisplay:10.37,2013-06-17 20:44:00,
2013-06-17 16:47:00,79.8,70.4,29.97,NNE,24,2.0,5.0,73,0.00,CLR,,0.05,WeatherDisplay:10.37,2013-06-17 20:47:00,
2013-06-17 16:49:00,79.7,70.7,29.97,ENE,72,1.0,4.0,74,0.00,CLR,,0.05,WeatherDisplay:10.37,2013-06-17 20:49:00,
2013-06-17 16:52:00,79.5,70.5,29.97,South,174,1.0,5.0,74,0.00,CLR,,0.05,WeatherDisplay:10.37,2013-06-17 20:52:00,
2013-06-17 16:54:00,79.3,70.3,29.97,SW,214,2.0,3.0,74,0.00,CLR,,0.05,WeatherDisplay:10.37,2013-06-17 20:54:00,
2013-06-17 16:57:00,78.7,70.1,29.97,WSW,243,1.0,4.0,75,0.00,CLR,,0.05,WeatherDisplay:10.37,2013-06-17 20:57:00,
2013-06-17 16:59:00,78.4,70.6,29.97,West,277,2.0,4.0,77,0.00,CLR,,0.05,WeatherDisplay:10.37,2013-06-17 20:59:00,
2013-06-17 17:02:00,77.9,70.1,29.97,NW,320,1.0,3.0,77,0.00,CLR,,0.05,WeatherDisplay:10.37,2013-06-17 21:02:00,
2013-06-17 17:04:00,77.7,69.9,29.97,NNW,333,1.0,1.0,77,0.00,CLR,,0.05,WeatherDisplay:10.37,2013-06-17 21:04:00,
2013-06-17 17:07:00,77.5,69.3,29.97,NNE,13,3.0,5.0,76,0.00,CLR,,0.05,WeatherDisplay:10.37,2013-06-17 21:07:00,
2013-06-17 17:09:00,77.3,69.5,29.97,NNE,24,2.0,4.0,77,0.00,CLR,,0.05,WeatherDisplay:10.37,2013-06-17 21:09:00,
2013-06-17 17:12:00,77.1,70.1,29.97,NE,42,1.0,6.0,79,0.00,CLR,,0.05,WeatherDisplay:10.37,2013-06-17 21:12:00,
2013-06-17 17:14:00,77.3,70.3,29.97,ENE,71,2.0,3.0,79,0.00,CLR,,0.05,WeatherDisplay:10.37,2013-06-17 21:14:00,
2013-06-17 17:17:00,77.9,70.9,29.97,East,94,1.0,2.0,79,0.00,CLR,,0.05,WeatherDisplay:10.37,2013-06-17 21:17:00,
2013-06-17 17:19:00,78.3,70.9,29.97,East,101,0.0,2.0,78,0.00,CLR,,0.05,WeatherDisplay:10.37,2013-06-17 21:19:00,
2013-06-17 17:22:00,78.5,70.3,29.97,SSW,202,2.0,5.0,76,0.00,CLR,,0.05,WeatherDisplay:10.37,2013-06-17 21:22:00,
2013-06-17 17:24:00,78.5,70.7,29.97,WNW,292,0.0,2.0,77,0.00,CLR,,0.05,WeatherDisplay:10.37,2013-06-17 21:24:00,
2013-06-17 17:27:00,78.4,70.6,29.97,NW,316,0.0,3.0,77,0.00,CLR,,0.05,WeatherDisplay:10.37,2013-06-17 21:27:00,
2013-06-17 17:29:00,78.5,70.7,29.96,NNE,16,1.0,1.0,77,0.00,CLR,,0.05,WeatherDisplay:10.37,2013-06-17 21:29:00,
2013-06-17 17:32:00,78.9,70.7,29.96,East,96,1.0,4.0,76,0.00,CLR,,0.05,WeatherDisplay:10.37,2013-06-17 21:32:00,
2013-06-17 17:34:00,79.3,70.7,29.96,East,100,1.0,3.0,75,0.00,CLR,,0.05,WeatherDisplay:10.37,2013-06-17 21:34:00,
2013-06-17 17:37:00,79.8,71.2,29.96,ENE,78,1.0,3.0,75,0.00,CLR,,0.05,WeatherDisplay:10.37,2013-06-17 21:37:00,
2013-06-17 17:39:00,79.8,70.4,29.97,NE,43,0.0,3.0,73,0.00,CLR,,0.05,WeatherDisplay:10.37,2013-06-17 21:39:00,
2013-06-17 17:42:00,79.7,70.7,29.96,NNE,18,1.0,3.0,74,0.00,CLR,,0.05,WeatherDisplay:10.37,2013-06-17 21:42:00,
2013-06-17 17:44:00,79.5,70.5,29.97,North,7,2.0,6.0,74,0.00,CLR,,0.05,WeatherDisplay:10.37,2013-06-17 21:44:00,
2013-06-17 17:47:00,79.6,70.6,29.97,West,278,1.0,3.0,74,0.00,CLR,,0.05,WeatherDisplay:10.37,2013-06-17 21:47:00,
2013-06-17 17:49:00,80.1,71.1,29.97,SE,144,2.0,3.0,74,0.00,CLR,,0.05,WeatherDisplay:10.37,2013-06-17 21:49:00,
2013-06-17 17:52:00,80.5,71.0,29.96,SE,130,2.0,3.0,73,0.00,CLR,,0.05,WeatherDisplay:10.37,2013-06-17 21:52:00,
2013-06-17 17:54:00,80.7,71.2,29.96,SE,140,2.0,3.0,73,0.00,CLR,,0.05,WeatherDisplay:10.37,2013-06-17 21:54:00,
2013-06-17 17:57:00,81.0,70.7,29.96,SSE,158,2.0,7.0,71,0.00,CLR,,0.05,WeatherDisplay:10.37,2013-06-17 21:57:00,
2013-06-17 17:59:00,81.1,70.4,29.96,SSE,166,2.0,4.0,70,0.00,CLR,,0.05,WeatherDisplay:10.37,2013-06-17 21:59:00,
2013-06-17 18:02:00,81.1,69.5,29.96,South,183,3.0,8.0,68,0.00,CLR,,0.05,WeatherDisplay:10.37,2013-06-17 22:02:00,
2013-06-17 18:04:00,80.9,68.9,29.96,SSW,210,3.0,8.0,67,0.00,CLR,,0.05,WeatherDisplay:10.37,2013-06-17 22:04:00,
2013-06-17 18:07:00,80.9,68.5,29.96,SSW,213,2.0,4.0,66,0.00,CLR,,0.05,WeatherDisplay:10.37,2013-06-17 22:07:00,
2013-06-17 18:09:00,80.9,68.0,29.96,SSE,166,3.0,7.0,65,0.00,CLR,,0.05,WeatherDisplay:10.37,2013-06-17 22:09:00,
2013-06-17 18:12:00,80.9,66.2,29.96,SSW,195,6.0,11.0,61,0.00,CLR,,0.05,WeatherDisplay:10.37,2013-06-17 22:12:00,
2013-06-17 18:14:00,80.7,66.9,29.96,SSE,162,3.0,10.0,63,0.00,CLR,,0.05,WeatherDisplay:10.37,2013-06-17 22:14:00,
2013-06-17 18:17:00,80.6,66.8,29.96,SSE,167,3.0,7.0,63,0.00,CLR,,0.05,WeatherDisplay:10.37,2013-06-17 22:17:00,
2013-06-17 18:19:00,80.6,66.4,29.96,South,180,2.0,7.0,62,0.00,CLR,,0.05,WeatherDisplay:10.37,2013-06-17 22:19:00,
2013-06-17 18:22:00,80.6,66.4,29.96,SSE,155,0.0,3.0,62,0.00,CLR,,0.05,WeatherDisplay:10.37,2013-06-17 22:22:00,
2013-06-17 18:24:00,80.6,65.4,29.96,South,169,2.0,4.0,60,0.00,CLR,,0.05,WeatherDisplay:10.37,2013-06-17 22:24:00,
2013-06-17 18:27:00,80.6,65.9,29.96,NNW,332,1.0,3.0,61,0.00,CLR,,0.05,WeatherDisplay:10.37,2013-06-17 22:27:00,
2013-06-17 18:29:00,80.5,65.8,29.96,NW,310,2.0,5.0,61,0.00,CLR,,0.05,WeatherDisplay:10.37,2013-06-17 22:29:00,
2013-06-17 18:32:00,80.4,65.7,29.96,NW,307,1.0,4.0,61,0.00,CLR,,0.05,WeatherDisplay:10.37,2013-06-17 22:32:00,
2013-06-17 18:34:00,80.5,65.8,29.96,WNW,287,1.0,2.0,61,0.00,CLR,,0.05,WeatherDisplay:10.37,2013-06-17 22:34:00,
2013-06-17 18:37:00,80.4,65.2,29.96,NNE,20,2.0,4.0,60,0.00,CLR,,0.05,WeatherDisplay:10.37,2013-06-17 22:37:00,
2013-06-17 18:39:00,80.4,65.2,29.96,ENE,57,1.0,4.0,60,0.00,CLR,,0.05,WeatherDisplay:10.37,2013-06-17 22:39:00,
2013-06-17 18:42:00,80.4,66.2,29.96,ENE,57,1.0,4.0,62,0.00,CLR,,0.05,WeatherDisplay:10.37,2013-06-17 22:42:00,
2013-06-17 18:44:00,80.5,66.3,29.96,NE,49,0.0,2.0,62,0.00,CLR,,0.05,WeatherDisplay:10.37,2013-06-17 22:44:00,
2013-06-17 18:47:00,80.8,67.5,29.97,North,1,1.0,3.0,64,0.00,CLR,,0.05,WeatherDisplay:10.37,2013-06-17 22:47:00,
2013-06-17 18:49:00,81.0,65.8,29.97,NW,317,1.0,2.0,60,0.00,CLR,,0.05,WeatherDisplay:10.37,2013-06-17 22:49:00,
2013-06-17 18:52:00,81.5,66.3,29.97,NW,315,1.0,4.0,60,0.00,CLR,,0.05,WeatherDisplay:10.37,2013-06-17 22:52:00,
2013-06-17 18:54:00,81.7,67.4,29.97,West,276,0.0,2.0,62,0.00,CLR,,0.05,WeatherDisplay:10.37,2013-06-17 22:54:00,
2013-06-17 18:57:00,81.7,67.4,29.97,WSW,242,0.0,1.0,62,0.00,CLR,,0.05,WeatherDisplay:10.37,2013-06-17 22:57:00,
2013-06-17 19:02:00,81.2,66.0,29.98,East,94,0.0,11.0,60,0.00,CLR,,0.05,WeatherDisplay:10.37,2013-06-17 23:02:00,
2013-06-17 19:03:00,81.2,66.0,29.98,East,96,0.0,0.0,60,0.00,FEW,,0.05,WeatherDisplay:10.37,2013-06-17 23:03:00,
2013-06-17 19:04:00,81.1,66.4,29.97,East,96,0.0,0.0,61,0.00,FEW,,0.05,WeatherDisplay:10.37,2013-06-17 23:04:00,
2013-06-17 19:09:00,80.6,66.8,29.97,ESE,103,0.0,1.2,63,0.00,FEW,,0.05,WeatherDisplay:10.37,2013-06-17 23:09:00,
2013-06-17 19:14:00,80.2,66.9,29.97,ESE,103,0.0,0.0,64,0.00,FEW,,0.05,WeatherDisplay:10.37,2013-06-17 23:14:00,
2013-06-17 19:19:00,80.2,67.4,29.97,SE,134,0.1,1.2,65,0.00,FEW,,0.05,WeatherDisplay:10.37,2013-06-17 23:19:00,
2013-06-17 19:24:00,80.3,66.6,29.97,ENE,70,0.6,1.2,63,0.00,FEW,,0.05,WeatherDisplay:10.37,2013-06-17 23:24:00,
2013-06-17 19:29:00,79.8,66.5,29.97,East,83,0.1,1.2,64,0.00,FEW,,0.05,WeatherDisplay:10.37,2013-06-17 23:29:00,
2013-06-17 19:34:00,79.3,66.5,29.97,ESE,117,0.0,1.2,65,0.00,FEW,,0.05,WeatherDisplay:10.37,2013-06-17 23:34:00,
2013-06-17 19:39:00,79.1,66.8,29.97,ESE,113,0.0,0.0,66,0.00,FEW,,0.05,WeatherDisplay:10.37,2013-06-17 23:39:00,
2013-06-17 19:44:00,78.7,67.7,29.97,ESE,113,0.0,0.0,69,0.00,FEW,,0.05,WeatherDisplay:10.37,2013-06-17 23:44:00,
2013-06-17 19:54:00,77.7,67.5,29.97,ESE,113,0.0,0.0,71,0.00,FEW,,0.05,WeatherDisplay:10.37,2013-06-17 23:54:00,
2013-06-17 19:59:00,77.2,67.5,29.97,ESE,113,0.0,0.0,72,0.00,FEW,,0.05,WeatherDisplay:10.37,2013-06-17 23:59:00,
2013-06-17 20:04:00,76.9,67.6,29.97,ESE,114,0.0,0.0,73,0.00,FEW,,0.05,WeatherDisplay:10.37,2013-06-18 00:04:00,
2013-06-17 20:09:00,76.6,68.1,29.96,ESE,114,0.0,0.0,75,0.00,FEW,,0.05,WeatherDisplay:10.37,2013-06-18 00:09:00,
2013-06-17 20:14:00,76.3,68.2,29.96,ESE,114,0.0,0.0,76,0.00,FEW,,0.05,WeatherDisplay:10.37,2013-06-18 00:14:00,
2013-06-17 20:19:00,76.1,68.4,29.96,ESE,114,0.0,0.0,77,0.00,SCT,,0.05,WeatherDisplay:10.37,2013-06-18 00:19:00,
2013-06-17 20:24:00,75.7,67.6,29.97,ESE,114,0.0,0.0,76,0.00,SCT,,0.05,WeatherDisplay:10.37,2013-06-18 00:24:00,
2013-06-17 20:29:00,75.1,67.4,29.97,ESE,114,0.0,0.0,77,0.00,SCT,,0.05,WeatherDisplay:10.37,2013-06-18 00:29:00,
2013-06-17 20:34:00,74.9,67.6,29.97,ESE,114,0.0,0.0,78,0.00,SCT,,0.05,WeatherDisplay:10.37,2013-06-18 00:34:00,
2013-06-17 20:39:00,74.6,67.7,29.97,ESE,114,0.0,0.0,79,0.00,SCT,,0.05,WeatherDisplay:10.37,2013-06-18 00:39:00,
2013-06-17 20:44:00,74.3,67.4,29.97,ESE,114,0.0,0.0,79,0.00,SCT,,0.05,WeatherDisplay:10.37,2013-06-18 00:44:00,
2013-06-17 20:49:00,74.0,67.4,29.97,ESE,114,0.0,0.0,80,0.00,SCT,,0.05,WeatherDisplay:10.37,2013-06-18 00:49:00,
2013-06-17 20:54:00,73.7,67.1,29.97,ESE,115,0.0,0.0,80,0.00,SCT,,0.05,WeatherDisplay:10.37,2013-06-18 00:54:00,
2013-06-17 20:59:00,73.4,67.6,29.97,SW,223,0.0,0.0,82,0.00,SCT,,0.05,WeatherDisplay:10.37,2013-06-18 00:59:00,
2013-06-17 21:04:00,73.0,67.2,29.97,SW,221,0.0,0.0,82,0.00,FEW,,0.05,WeatherDisplay:10.37,2013-06-18 01:04:00,
2013-06-17 21:09:00,72.7,67.2,29.97,SW,219,0.0,0.0,83,0.00,FEW,,0.05,WeatherDisplay:10.37,2013-06-18 01:09:00,
2013-06-17 21:14:00,72.6,67.1,29.97,SE,146,0.3,1.2,83,0.00,FEW,,0.05,WeatherDisplay:10.37,2013-06-18 01:14:00,
2013-06-17 21:19:00,72.5,67.0,29.97,SE,146,0.0,0.0,83,0.00,FEW,,0.05,WeatherDisplay:10.37,2013-06-18 01:19:00,
2013-06-17 21:24:00,72.3,66.8,29.97,SE,145,0.0,0.0,83,0.00,FEW,,0.05,WeatherDisplay:10.37,2013-06-18 01:24:00,
2013-06-17 21:29:00,72.2,67.1,29.97,SE,145,0.0,0.0,84,0.00,FEW,,0.05,WeatherDisplay:10.37,2013-06-18 01:29:00,
2013-06-17 21:34:00,72.2,67.4,29.98,SE,146,0.0,0.0,85,0.00,FEW,,0.05,WeatherDisplay:10.37,2013-06-18 01:34:00,
2013-06-17 21:39:00,72.0,67.2,29.98,SE,124,0.8,1.2,85,0.00,FEW,,0.05,WeatherDisplay:10.37,2013-06-18 01:39:00,
2013-06-17 21:44:00,71.9,67.1,29.98,SE,124,0.0,0.0,85,0.00,FEW,,0.05,WeatherDisplay:10.37,2013-06-18 01:44:00,
2013-06-17 21:49:00,71.7,66.9,29.98,SE,124,0.0,0.0,85,0.00,FEW,,0.05,WeatherDisplay:10.37,2013-06-18 01:49:00,
2013-06-17 21:54:00,71.6,67.2,29.98,SW,222,0.0,0.0,86,0.00,FEW,,0.05,WeatherDisplay:10.37,2013-06-18 01:54:00,
2013-06-17 21:59:00,71.3,67.2,29.98,SW,222,0.0,0.0,87,0.00,FEW,,0.05,WeatherDisplay:10.37,2013-06-18 01:59:00,
2013-06-17 22:04:00,71.0,66.9,29.98,SW,222,0.0,0.0,87,0.00,FEW,,0.05,WeatherDisplay:10.37,2013-06-18 02:04:00,
2013-06-17 22:09:00,70.8,67.1,29.98,SW,222,0.0,0.0,88,0.00,FEW,,0.05,WeatherDisplay:10.37,2013-06-18 02:09:00,
2013-06-17 22:14:00,70.6,66.9,29.99,SW,222,0.0,0.0,88,0.00,FEW,,0.05,WeatherDisplay:10.37,2013-06-18 02:14:00,
2013-06-17 22:19:00,70.4,67.0,29.99,SW,222,0.0,0.0,89,0.00,FEW,,0.05,WeatherDisplay:10.37,2013-06-18 02:19:00,
2013-06-17 22:24:00,70.3,67.2,29.99,SW,222,0.0,0.0,90,0.00,FEW,,0.05,WeatherDisplay:10.37,2013-06-18 02:24:00,
2013-06-17 22:29:00,70.2,67.1,30.00,SW,222,0.0,0.0,90,0.00,FEW,,0.05,WeatherDisplay:10.37,2013-06-18 02:29:00,
2013-06-17 22:34:00,69.9,66.8,30.00,SW,222,0.0,0.0,90,0.00,FEW,,0.05,WeatherDisplay:10.37,2013-06-18 02:34:00,
2013-06-17 22:39:00,69.8,66.7,30.00,SW,222,0.0,0.0,90,0.00,FEW,,0.05,WeatherDisplay:10.37,2013-06-18 02:39:00,
2013-06-17 22:44:00,69.8,67.1,30.00,South,184,0.0,0.0,91,0.00,FEW,,0.05,WeatherDisplay:10.37,2013-06-18 02:44:00,
2013-06-17 22:49:00,69.6,66.9,30.00,SW,236,0.6,1.2,91,0.00,FEW,,0.05,WeatherDisplay:10.37,2013-06-18 02:49:00,
2013-06-17 22:54:00,69.5,66.8,30.00,SW,236,0.0,0.0,91,0.00,FEW,,0.05,WeatherDisplay:10.37,2013-06-18 02:54:00,
2013-06-17 22:59:00,69.4,66.7,29.99,SW,236,0.0,0.0,91,0.00,FEW,,0.05,WeatherDisplay:10.37,2013-06-18 02:59:00,
2013-06-17 23:04:00,69.2,66.8,30.00,SW,236,0.0,0.0,92,0.00,CLR,,0.05,WeatherDisplay:10.37,2013-06-18 03:04:00,
2013-06-17 23:09:00,69.1,66.7,30.00,SW,236,0.0,0.0,92,0.00,CLR,,0.05,WeatherDisplay:10.37,2013-06-18 03:09:00,
2013-06-17 23:14:00,68.9,66.5,30.00,SW,236,0.0,0.0,92,0.00,CLR,,0.05,WeatherDisplay:10.37,2013-06-18 03:14:00,
2013-06-17 23:19:00,68.8,66.7,30.00,SW,236,0.0,0.0,93,0.00,CLR,,0.05,WeatherDisplay:10.37,2013-06-18 03:19:00,
2013-06-17 23:24:00,68.8,66.7,30.00,SW,236,0.0,0.0,93,0.00,CLR,,0.05,WeatherDisplay:10.37,2013-06-18 03:24:00,
2013-06-17 23:29:00,68.7,66.6,30.00,SW,236,0.0,0.0,93,0.00,CLR,,0.05,WeatherDisplay:10.37,2013-06-18 03:29:00,
2013-06-17 23:34:00,68.6,66.5,30.00,SW,236,0.0,0.0,93,0.00,CLR,,0.05,WeatherDisplay:10.37,2013-06-18 03:34:00,
2013-06-17 23:39:00,68.6,66.5,30.00,SW,236,0.0,0.0,93,0.00,CLR,,0.05,WeatherDisplay:10.37,2013-06-18 03:39:00,
2013-06-17 23:44:00,68.5,66.4,30.00,SW,236,0.0,0.0,93,0.00,CLR,,0.05,WeatherDisplay:10.37,2013-06-18 03:44:00,
2013-06-17 23:49:00,68.5,66.4,30.00,SW,236,0.0,0.0,93,0.00,CLR,,0.05,WeatherDisplay:10.37,2013-06-18 03:49:00,
2013-06-17 23:54:00,68.4,66.3,30.00,SW,236,0.0,0.0,93,0.00,CLR,,0.05,WeatherDisplay:10.37,2013-06-18 03:54:00,
2013-06-17 23:59:00,68.4,66.3,30.00,SW,236,0.1,1.2,93,0.00,CLR,,0.05,WeatherDisplay:10.37,2013-06-18 03:59:00,